Location: Alston School (historical)
(35.5076°N, 89.8251°W)
Time: 19:17:42
(UTC+00:00)

Cosmos 2058 Rocket - Pass Details

Date: 21 March 2026
Orbit: 604 x 632 km, 82.5° (Epoch: 21 April)

Event Time Altitude Azimuth Distance (km) Brightness Sun altitude
Rises 10:12:50 0° 140° (SE) 2,894 6.8 -22.6°
Reaches altitude 10° 10:16:12 10° 112° (ESE) 1,999 6.3 -21.9°
Maximum altitude 10:18:10 13° 85° (E) 1,821 6.5 -21.5°
Drops below altitude 10° 10:20:09 10° 59° (ENE) 2,011 6.8 -21.2°
Sets 10:23:33 0° 31° (NNE) 2,928 7.2 -20.5°
